Pagrindinis puslapis
METAR-TAF:

METAR-TAF

Oro uostai :

Kalskag, Aliaska, Jungtinės Amerikos Valstijos

platuma: 61-32-11N, ilguma: 160-20-29W, Aukštis: 17 m

Dabartinis oras

Ataskaita buvo paskelbta 53 minutes, ne 03:56 UTC
Ramus vėjas
Temperatūra -19°C
Drėgmė 59%
Slėgis 1018 hPa
Matomumas: 16.1 km
Giedras dangus

METAR: PALG 290356Z AUTO 00000KT 10SM CLR M19/M25 A3007 RMK AO2 SLP187 T11891250 FZRANO

Laikas: 19:49 (04:49 UTC)


TAF: trūkstamas

Orai ataskaitas ir orų prognozės (METAR, TAF).

turimą stotys yra geltonos ir raudonos taškus žemėlapyje.

Perkelti pele per norėdami pamatyti stoties vardą.

Tada spustelėkite, norėdami matyti oro stebėjimo ir prognozės.

Norėdami pakeisti žemėlapį: spustelėkite ant žalios mygtukų su juodo kryžiaus žemyn,; žalią mygtuką su brūkšneliu, jei norite nutolinti; arba žalių rodyklių gretimoms žemėlapius.


METAR-TAF: